Date,TemperatureHighF,TemperatureAvgF,TemperatureLowF,DewpointHighF,DewpointAvgF,DewpointLowF,HumidityHigh,HumidityAvg,HumidityLow,PressureMaxIn,PressureMinIn,WindSpeedMaxMPH,WindSpeedAvgMPH,GustSpeedMaxMPH,PrecipitationSumIn
2013-1-1,58,47,38,40,33,21,81,59,35,30.21,30.06,4,1,7,0.00
2013-1-2,64,51,41,35,27,19,60,39,26,30.12,30.03,4,1,10,0.00
2013-1-3,68,53,41,35,29,22,57,40,26,30.17,30.06,3,1,11,0.00
2013-1-4,55,49,45,28,25,21,48,39,27,30.23,30.16,2,1,7,0.00
2013-1-5,63,51,43,39,31,25,73,47,28,30.27,30.15,2,0,6,0.00
2013-1-6,53,46,40,46,42,38,98,89,68,30.17,30.00,5,1,15,0.05
2013-1-7,63,52,40,44,40,29,97,65,41,30.04,29.99,4,1,7,0.04
2013-1-8,76,59,44,45,35,27,57,42,18,30.10,30.02,4,1,7,0.00
2013-1-9,56,55,52,38,38,37,57,52,50,30.09,30.08,1,0,4,0.00
2013-1-10,51,46,42,32,27,22,64,49,33,30.08,29.94,10,2,20,0.00
2013-1-11,52,42,33,28,25,23,71,51,35,30.16,30.07,6,1,18,0.00
2013-1-12,53,44,35,30,25,21,68,50,31,30.14,30.05,6,1,16,0.00
2013-1-13,53,43,37,33,26,15,67,51,29,30.15,30.01,5,1,15,0.00
2013-1-14,53,42,32,29,17,8,64,38,21,30.32,30.11,5,1,10,0.00
2013-1-15,61,46,33,32,24,16,62,43,25,30.42,30.31,3,1,10,0.00
2013-1-16,69,53,39,35,30,26,60,42,24,30.34,30.15,5,1,7,0.00
2013-1-17,77,59,44,35,28,19,58,33,16,30.18,30.05,4,1,11,0.00
2013-1-18,77,62,51,34,23,16,38,23,14,30.14,30.05,5,1,9,0.00
2013-1-19,78,62,51,33,19,14,31,19,12,30.17,30.06,5,1,11,0.00
2013-1-20,80,63,54,32,19,12,28,18,11,30.14,30.01,3,1,9,0.00
2013-1-21,81,65,51,30,17,11,28,16,9,30.10,29.99,4,1,8,0.00
2013-1-22,79,63,53,33,19,10,27,19,12,30.09,30.00,4,1,10,0.00
2013-1-23,71,60,51,48,31,18,90,35,20,30.10,29.99,5,1,13,0.09
2013-1-24,59,55,51,58,54,48,100,97,87,30.15,30.06,4,0,7,1.55
2013-1-25,59,56,54,59,56,54,100,99,94,30.13,29.96,4,0,5,0.24
2013-1-26,68,57,51,60,54,51,100,93,69,29.96,29.86,4,0,7,0.07
2013-1-27,61,52,48,52,39,25,100,67,30,30.02,29.91,8,1,22,0.02
2013-1-28,57,50,42,32,28,25,64,44,33,30.16,30.02,9,2,21,0.01
2013-1-29,60,48,38,39,34,30,77,60,39,30.19,30.11,3,0,11,0.00
2013-1-31,76,64,46,47,41,37,72,46,31,30.21,30.10,4,1,10,0.00